Total_Precipitation_Accumulation
1.55 1.43 1.39 1.58 1.67 1.95 2.11 2.25 2.17 2.00 1.75 1.51 1.49 1.48 1.57 1.57 1.58 1.61 1.98 2.43 2.99 3.83 4.22 4.03 3.76 3.59 3.61 3.53 3.29 3.20 3.09 2.82 2.90 3.23 3.82 4.08 3.81 3.29 2.94 2.66 2.44 2.18 2.23
1.37 1.39 1.29 1.38 1.56 1.86 2.18 2.31 2.07 1.99 1.82 1.70 1.69 1.63 1.63 1.59 1.59 1.50 1.69 1.96 2.07 2.50 3.18 3.72 3.93 3.80 3.75 3.75 3.40 3.22 3.05 2.79 2.76 2.93 3.00 3.14 3.19 2.92 2.65 2.61 2.41 2.18 2.33
1.16 1.26 1.33 1.34 1.46 1.79 2.13 2.38 2.22 2.07 1.86 1.80 1.78 1.73 1.66 1.66 1.60 1.53 1.64 1.84 1.74 1.81 2.31 3.04 3.70 3.90 3.70 3.62 3.35 3.15 2.88 2.60 2.50 2.58 2.70 2.68 2.83 2.84 2.69 2.61 2.43 2.29 2.28
1.17 1.26 1.38 1.34 1.40 1.70 2.03 2.31 2.36 2.33 2.22 2.11 2.00 1.87 1.77 1.91 1.75 1.63 1.70 1.85 1.95 1.78 1.88 2.33 2.90 3.43 3.62 3.70 3.31 2.96 2.69 2.44 2.34 2.30 2.46 2.37 2.54 2.73 2.76 2.65 2.58 2.59 2.51
1.20 1.31 1.54 1.57 1.59 1.80 1.94 2.00 2.17 2.22 2.29 2.24 1.98 1.94 1.85 1.97 2.05 1.95 2.03 2.11 2.13 2.04 1.91 1.90 2.14 2.43 3.05 3.44 3.36 3.11 2.91 2.54 2.33 2.22 2.38 2.25 2.24 2.52 2.67 2.56 2.62 2.69 2.64
1.43 1.38 1.57 1.63 1.69 1.95 2.03 2.10 2.35 2.36 2.29 2.33 2.08 1.94 1.91 1.92 1.96 2.17 2.33 2.33 2.30 2.10 2.05 1.92 2.04 2.03 2.46 2.94 3.12 3.09 2.91 2.84 2.73 2.53 2.60 2.48 2.26 2.37 2.55 2.49 2.56 2.59 2.66
1.51 1.55 1.63 1.69 1.74 1.87 1.94 2.06 2.44 2.51 2.35 2.20 2.38 2.37 2.26 2.06 1.98 2.06 2.21 2.44 2.52 2.30 2.19 2.20 2.12 2.03 1.98 2.21 2.43 2.71 2.78 3.05 3.18 3.00 2.82 2.62 2.37 2.47 2.59 2.47 2.52 2.50 2.49
1.45 1.41 1.64 1.81 1.79 1.95 2.01 2.16 2.47 2.74 2.49 2.29 2.68 3.16 2.90 2.59 2.22 1.99 2.04 2.12 2.36 2.36 2.20 2.07 1.98 1.97 1.94 1.95 1.83 2.08 2.46 2.98 3.44 3.27 2.87 2.71 2.53 2.43 2.53 2.48 2.47 2.41 2.41
1.71 1.66 1.78 1.96 1.94 2.02 2.13 2.17 2.26 2.79 2.96 2.69 2.63 3.25 3.13 2.86 2.79 2.24 1.84 1.74 2.03 2.24 2.26 2.12 2.02 2.07 2.08 2.10 1.90 1.74 1.99 2.45 3.14 3.22 2.95 2.93 2.83 2.56 2.37 2.29 2.29 2.39 2.49
1.97 1.84 1.89 2.00 2.06 2.16 2.13 1.96 2.11 2.62 3.16 3.20 2.95 2.71 2.56 2.48 2.65 2.57 2.00 1.66 1.73 1.93 2.17 2.08 2.07 2.16 2.20 2.26 2.20 1.87 1.69 1.92 2.52 3.12 3.32 3.23 3.12 2.84 2.57 2.39 2.31 2.35 2.35
2.01 1.87 1.84 2.00 2.12 2.19 2.18 2.21 2.35 2.64 2.98 3.29 3.24 2.96 2.67 2.42 2.00 2.17 2.22 1.99 1.70 1.61 1.73 1.88 2.06 2.13 2.17 2.15 2.21 2.04 1.68 1.55 1.90 2.56 3.17 3.35 3.23 3.09 2.95 2.84 2.84 2.77 2.61
1.88 1.84 1.85 1.90 1.92 2.01 2.10 2.26 2.49 2.63 2.82 3.06 3.14 2.81 2.66 2.56 2.32 2.12 1.96 2.04 2.00 1.69 1.55 1.56 1.70 1.90 2.00 2.09 1.95 1.98 1.72 1.50 1.54 1.74 2.15 2.68 2.91 3.06 3.16 3.20 3.12 2.97 2.92
1.66 1.67 1.73 1.75 1.71 1.73 1.87 2.04 2.26 2.29 2.41 2.63 2.76 2.65 2.48 2.30 2.22 2.26 2.20 2.08 1.92 1.65 1.52 1.37 1.46 1.62 1.64 1.86 2.04 1.99 1.69 1.59 1.46 1.42 1.50 1.72 2.10 2.46 2.84 3.21 3.32 3.24 3.19
1.46 1.41 1.44 1.51 1.54 1.56 1.63 1.81 1.96 1.93 1.99 2.19 2.25 2.32 2.24 2.14 2.13 2.11 2.14 2.28 2.14 1.90 1.55 1.23 1.28 1.46 1.43 1.55 1.89 1.96 1.56 1.47 1.34 1.27 1.29 1.36 1.50 1.78 2.17 2.55 2.86 3.05 3.11
1.22 1.18 1.23 1.36 1.46 1.47 1.47 1.63 1.76 1.71 1.77 1.90 2.05 2.20 2.13 2.07 2.04 2.04 2.11 2.21 2.28 2.15 1.86 1.38 1.22 1.22 1.26 1.35 1.71 1.60 1.48 1.47 1.34 1.25 1.16 1.14 1.21 1.34 1.52 1.80 2.05 2.23 2.33
1.14 1.13 1.16 1.18 1.21 1.25 1.32 1.51 1.68 1.73 1.72 1.78 1.85 1.97 2.10 2.08 2.08 2.05 2.12 2.15 2.15 2.14 2.01 1.57 1.30 1.19 1.29 1.24 1.47 1.24 1.36 1.57 1.36 1.21 1.12 1.08 1.09 1.18 1.29 1.47 1.53 1.50 1.49
0.95 0.92 0.91 0.96 1.09 1.11 1.14 1.33 1.43 1.43 1.57 1.67 1.63 1.67 1.83 1.94 2.05 2.06 2.07 2.08 2.12 2.09 1.96 1.72 1.37 1.23 1.36 1.42 1.46 1.26 1.22 1.28 1.22 1.20 1.12 1.03 0.99 1.04 1.07 1.20 1.33 1.24 1.15
0.78 0.79 0.81 0.79 0.97 1.14 1.18 1.23 1.24 1.23 1.38 1.48 1.49 1.55 1.59 1.60 1.71 1.84 1.96 1.93 2.01 2.04 2.01 1.90 1.60 1.40 1.42 1.52 1.69 1.63 1.48 1.36 1.34 1.44 1.39 1.23 1.11 1.09 1.12 1.15 1.28 1.22 1.03
0.67 0.73 0.83 0.80 0.82 0.96 1.08 1.11 1.11 1.12 1.17 1.23 1.26 1.33 1.36 1.46 1.60 1.61 1.68 1.77 1.84 1.88 1.99 1.95 1.83 1.74 1.61 1.55 1.64 1.61 1.63 1.74 1.65 1.62 1.67 1.50 1.33 1.23 1.18 1.20 1.25 1.27 1.14
0.68 0.68 0.67 0.72 0.76 0.84 0.96 0.99 1.00 0.99 1.00 1.01 1.13 1.20 1.25 1.31 1.42 1.48 1.50 1.64 1.77 1.84 1.87 1.85 1.79 1.73 1.69 1.67 1.66 1.65 1.72 1.85 1.93 1.77 1.72 1.61 1.57 1.46 1.34 1.27 1.24 1.28 1.29
0.53 0.55 0.53 0.54 0.59 0.68 0.74 0.76 0.82 0.89 0.94 0.96 1.06 1.08 1.11 1.12 1.18 1.24 1.24 1.42 1.57 1.75 1.81 1.84 1.75 1.65 1.60 1.62 1.61 1.62 1.70 1.92 1.98 1.98 1.95 1.78 1.64 1.45 1.38 1.33 1.28 1.31 1.35
0.43 0.45 0.45 0.49 0.52 0.53 0.66 0.67 0.66 0.74 0.84 0.89 0.96 1.00 1.08 1.11 1.08 1.04 1.02 1.09 1.22 1.34 1.53 1.66 1.69 1.62 1.54 1.53 1.65 1.77 1.77 1.91 2.04 1.93 1.84 1.90 1.79 1.67 1.49 1.35 1.40 1.43 1.40
0.48 0.47 0.47 0.51 0.47 0.45 0.54 0.50 0.61 0.77 0.78 0.78 0.79 0.94 1.04 1.07 1.12 1.11 1.01 1.00 0.99 1.02 1.14 1.33 1.45 1.46 1.46 1.50 1.62 1.75 1.84 1.91 1.83 1.87 1.84 1.93 1.86 1.70 1.48 1.43 1.52 1.42 1.40
0.48 0.53 0.52 0.53 0.46 0.38 0.45 0.48 0.57 0.67 0.69 0.67 0.71 0.83 0.99 1.09 1.14 1.17 1.11 1.15 1.09 0.96 0.95 1.03 1.20 1.31 1.35 1.53 1.71 1.89 2.02 2.03 1.92 1.86 1.83 1.89 1.77 1.60 1.42 1.38 1.52 1.41 1.33
0.45 0.51 0.57 0.55 0.44 0.36 0.41 0.48 0.59 0.68 0.74 0.72 0.72 0.78 0.95 1.04 1.20 1.25 1.16 1.23 1.21 0.99 0.93 1.02 1.07 1.17 1.30 1.47 1.69 1.91 2.01 2.04 2.03 1.90 1.70 1.60 1.52 1.56 1.52 1.41 1.39 1.39 1.29
0.45 0.48 0.52 0.50 0.43 0.41 0.44 0.47 0.56 0.58 0.69 0.75 0.78 0.79 1.01 1.09 1.21 1.18 1.10 1.29 1.38 1.20 0.94 0.93 1.01 1.15 1.26 1.42 1.68 1.85 2.10 2.12 1.96 1.88 1.67 1.53 1.52 1.64 1.78 1.59 1.37 1.27 1.20